Total_Precipitation_Accumulation
0.02 0.05 0.14 0.32 0.44 0.78 0.96 0.67 0.37 0.24 0.14 0.11 0.11 0.09 0.05 0.04 0.05 0.04 0.04 0.07 0.10 0.12 0.11 0.08 0.10 0.09 0.09 0.08 0.07 0.07 0.07 0.07 0.05 0.05 0.03 0.02 0.02 0.01 0.01 0.01 0.01 0.01 0.01
0.02 0.04 0.11 0.25 0.37 0.50 0.55 0.54 0.49 0.43 0.26 0.19 0.18 0.18 0.13 0.11 0.11 0.13 0.19 0.22 0.19 0.13 0.10 0.09 0.06 0.06 0.06 0.06 0.06 0.05 0.03 0.03 0.02 0.03 0.02 0.01 0.00 0.00 0.00 0.00 0.00 0.00 0.00
0.02 0.04 0.11 0.23 0.33 0.39 0.46 0.50 0.51 0.49 0.35 0.25 0.22 0.23 0.23 0.23 0.27 0.32 0.34 0.29 0.20 0.12 0.08 0.05 0.04 0.03 0.02 0.03 0.03 0.03 0.04 0.03 0.01 0.01 0.02 0.02 0.01 0.00 0.00 0.00 0.00 0.00 0.00
0.02 0.03 0.08 0.16 0.27 0.38 0.41 0.43 0.48 0.49 0.44 0.34 0.26 0.28 0.32 0.32 0.32 0.24 0.20 0.15 0.08 0.05 0.03 0.02 0.02 0.01 0.01 0.01 0.01 0.02 0.02 0.02 0.01 0.00 0.01 0.01 0.02 0.02 0.01 0.00 0.00 0.00 0.00
0.02 0.03 0.06 0.13 0.26 0.34 0.36 0.41 0.45 0.44 0.39 0.33 0.28 0.26 0.22 0.16 0.11 0.08 0.05 0.03 0.01 0.01 0.01 0.01 0.01 0.01 0.01 0.01 0.01 0.01 0.01 0.01 0.01 0.01 0.01 0.01 0.01 0.02 0.03 0.02 0.01 0.00 0.00
0.02 0.04 0.06 0.12 0.19 0.23 0.28 0.33 0.34 0.33 0.29 0.25 0.22 0.17 0.14 0.11 0.08 0.05 0.03 0.02 0.01 0.00 0.00 0.00 0.00 0.01 0.01 0.01 0.01 0.01 0.01 0.01 0.02 0.01 0.01 0.02 0.02 0.02 0.03 0.03 0.02 0.01 0.00
0.02 0.04 0.07 0.10 0.13 0.15 0.17 0.19 0.20 0.20 0.18 0.14 0.11 0.10 0.09 0.07 0.04 0.03 0.02 0.01 0.00 0.00 0.00 0.00 0.00 0.00 0.01 0.01 0.01 0.01 0.01 0.01 0.02 0.02 0.02 0.02 0.02 0.03 0.04 0.06 0.05 0.03 0.01
0.03 0.05 0.07 0.08 0.10 0.09 0.09 0.09 0.10 0.10 0.09 0.07 0.07 0.06 0.04 0.03 0.02 0.02 0.01 0.01 0.00 0.00 0.00 0.00 0.00 0.00 0.01 0.01 0.01 0.01 0.01 0.02 0.03 0.03 0.04 0.04 0.04 0.05 0.07 0.10 0.12 0.11 0.06
0.05 0.07 0.08 0.08 0.07 0.05 0.05 0.06 0.07 0.07 0.06 0.06 0.05 0.03 0.02 0.02 0.02 0.02 0.01 0.01 0.00 0.00 0.00 0.00 0.01 0.02 0.02 0.03 0.03 0.03 0.03 0.04 0.05 0.05 0.05 0.06 0.06 0.07 0.08 0.09 0.12 0.16 0.15
0.09 0.10 0.07 0.06 0.05 0.04 0.05 0.07 0.06 0.06 0.05 0.05 0.04 0.03 0.02 0.02 0.01 0.01 0.01 0.01 0.01 0.01 0.01 0.02 0.03 0.03 0.03 0.03 0.03 0.04 0.05 0.06 0.07 0.08 0.08 0.08 0.08 0.08 0.08 0.09 0.11 0.16 0.23
0.13 0.13 0.08 0.06 0.06 0.05 0.06 0.07 0.08 0.08 0.07 0.06 0.04 0.03 0.02 0.01 0.01 0.01 0.01 0.01 0.01 0.02 0.03 0.03 0.03 0.03 0.02 0.03 0.04 0.06 0.07 0.07 0.06 0.07 0.07 0.07 0.07 0.09 0.09 0.09 0.11 0.12 0.18
0.13 0.10 0.07 0.06 0.06 0.06 0.07 0.08 0.10 0.10 0.09 0.06 0.04 0.02 0.02 0.01 0.01 0.01 0.01 0.02 0.02 0.03 0.03 0.04 0.03 0.03 0.03 0.04 0.06 0.06 0.06 0.06 0.06 0.06 0.07 0.07 0.07 0.08 0.07 0.08 0.09 0.11 0.16
0.14 0.09 0.06 0.06 0.07 0.08 0.09 0.10 0.12 0.11 0.08 0.05 0.02 0.01 0.01 0.01 0.01 0.02 0.02 0.02 0.03 0.04 0.04 0.03 0.03 0.03 0.04 0.06 0.06 0.06 0.05 0.06 0.06 0.06 0.07 0.07 0.08 0.07 0.06 0.08 0.10 0.12 0.16
0.15 0.10 0.10 0.10 0.11 0.11 0.12 0.11 0.10 0.08 0.05 0.03 0.02 0.02 0.02 0.02 0.02 0.03 0.03 0.03 0.04 0.04 0.03 0.03 0.03 0.04 0.05 0.04 0.03 0.03 0.03 0.04 0.04 0.05 0.07 0.08 0.08 0.09 0.11 0.12 0.13 0.16 0.18
0.19 0.20 0.20 0.18 0.15 0.12 0.11 0.10 0.10 0.08 0.06 0.04 0.03 0.03 0.02 0.02 0.03 0.04 0.04 0.03 0.03 0.03 0.03 0.03 0.03 0.03 0.03 0.01 0.00 0.00 0.01 0.01 0.02 0.04 0.07 0.08 0.08 0.12 0.13 0.13 0.14 0.18 0.21
0.35 0.34 0.26 0.20 0.14 0.13 0.13 0.13 0.12 0.09 0.07 0.05 0.04 0.03 0.02 0.02 0.03 0.03 0.03 0.03 0.04 0.03 0.03 0.02 0.01 0.01 0.01 0.00 0.00 0.00 0.00 0.01 0.02 0.05 0.06 0.04 0.04 0.05 0.05 0.08 0.13 0.18 0.22
0.36 0.29 0.21 0.16 0.16 0.18 0.19 0.18 0.16 0.13 0.11 0.08 0.05 0.04 0.03 0.03 0.03 0.02 0.02 0.03 0.02 0.02 0.02 0.01 0.01 0.01 0.01 0.00 0.00 0.00 0.00 0.02 0.04 0.07 0.06 0.04 0.03 0.04 0.07 0.09 0.12 0.15 0.21
0.23 0.20 0.17 0.19 0.22 0.25 0.24 0.22 0.18 0.14 0.10 0.09 0.06 0.04 0.03 0.03 0.02 0.02 0.02 0.02 0.02 0.02 0.02 0.02 0.01 0.02 0.01 0.00 0.00 0.00 0.01 0.02 0.04 0.05 0.05 0.06 0.06 0.07 0.09 0.11 0.15 0.16 0.18
0.18 0.18 0.22 0.28 0.32 0.30 0.26 0.21 0.17 0.12 0.09 0.07 0.05 0.03 0.02 0.02 0.02 0.02 0.02 0.02 0.02 0.02 0.01 0.01 0.01 0.02 0.02 0.00 0.00 0.00 0.01 0.02 0.02 0.03 0.04 0.06 0.06 0.08 0.09 0.14 0.19 0.21 0.27
0.15 0.24 0.32 0.36 0.35 0.30 0.23 0.18 0.12 0.08 0.06 0.03 0.02 0.01 0.01 0.01 0.01 0.01 0.02 0.02 0.02 0.01 0.01 0.01 0.02 0.03 0.03 0.01 0.00 0.01 0.02 0.02 0.02 0.02 0.02 0.04 0.07 0.08 0.11 0.16 0.23 0.31 0.40
0.23 0.30 0.34 0.34 0.28 0.20 0.14 0.10 0.07 0.05 0.03 0.02 0.01 0.01 0.01 0.00 0.01 0.01 0.01 0.02 0.01 0.01 0.01 0.02 0.02 0.03 0.02 0.02 0.00 0.01 0.02 0.03 0.04 0.04 0.05 0.08 0.13 0.12 0.14 0.22 0.32 0.46 0.56
0.30 0.33 0.32 0.28 0.20 0.12 0.08 0.06 0.05 0.03 0.01 0.01 0.01 0.01 0.01 0.00 0.00 0.01 0.01 0.01 0.01 0.01 0.01 0.01 0.02 0.02 0.03 0.02 0.01 0.00 0.01 0.03 0.05 0.09 0.11 0.16 0.20 0.18 0.22 0.33 0.49 0.63 0.72
0.33 0.30 0.25 0.18 0.11 0.06 0.04 0.03 0.02 0.01 0.01 0.01 0.01 0.01 0.00 0.00 0.00 0.00 0.00 0.01 0.01 0.01 0.01 0.01 0.02 0.02 0.02 0.03 0.01 0.01 0.01 0.03 0.06 0.13 0.23 0.27 0.25 0.30 0.39 0.55 0.69 0.75 0.73
0.22 0.16 0.10 0.07 0.04 0.02 0.01 0.01 0.00 0.00 0.00 0.01 0.01 0.01 0.01 0.00 0.00 0.00 0.00 0.01 0.01 0.01 0.02 0.02 0.03 0.04 0.04 0.04 0.03 0.03 0.04 0.05 0.07 0.11 0.23 0.34 0.37 0.47 0.61 0.71 0.74 0.74 0.76
0.08 0.05 0.04 0.03 0.02 0.01 0.00 0.00 0.00 0.00 0.00 0.00 0.00 0.01 0.01 0.01 0.01 0.00 0.00 0.01 0.01 0.01 0.02 0.03 0.04 0.07 0.07 0.05 0.04 0.06 0.07 0.09 0.12 0.14 0.19 0.23 0.31 0.46 0.60 0.68 0.70 0.68 0.69
0.04 0.04 0.03 0.01 0.01 0.00 0.00 0.00 0.00 0.00 0.00 0.01 0.01 0.01 0.00 0.00 0.00 0.01 0.01 0.01 0.00 0.00 0.01 0.02 0.04 0.05 0.06 0.04 0.03 0.04 0.07 0.10 0.15 0.17 0.24 0.33 0.40 0.50 0.60 0.67 0.71 0.67 0.60